Regional Weather Roundup
Issued by NWS Kansas City/Pleasant Hill, MO

Home | Current Version | Previous Version | Text Only | Print | Product List | Glossary On
Versions: 1 2 3 4 5 6 7 8 9 10 11 12 13 14 15 16 17 18 19 20 21 22 23 24 25 26 27 28 29 30 31 32 33 34 35 36 37 38 39 40 41 42 43 44 45 46 47 48 49 50
000
ASUS43 KEAX 311110
RWREAX

WEATHER ROUNDUP FOR EASTERN KANSAS AND NORTHWEST MISSOURI
NATIONAL WEATHER SERVICE KANSAS CITY/PLEASANT HILL MO
600 AM CDT FRI JUL 31 2015

KSZ040-057-103>105-MOZ028-029-037-043-311200-
...KANSAS CITY METROPOLITAN AREA...

CITY           SKY/WX    TMP DP  RH WIND       PRES   REMARKS
K.C. INTL      PTCLDY    65  60  84 SW6       30.16S
K.C. DOWNTOWN  CLEAR     68  65  90 CALM      30.16R
LEES SUMMIT    CLEAR     65  59  81 CALM      30.17S
OLATHE - IXD   CLEAR     63  60  90 S3        30.18R
OLATHE - OJC   CLEAR     63  62  97 SW3       30.17R
LAWRENCE       PTCLDY    59  58  96 NW6       30.17R

$$

MOZ001>008-011>017-020>025-030>033-038>040-044>046-053-054-311200-
...NORTHERN AND CENTRAL MISSOURI...

CITY           SKY/WX    TMP DP  RH WIND       PRES   REMARKS
ST. JOSEPH     FOG       65  65 100 CALM      30.17R VSB 1
MOSBY          CLOUDY    61  61 100 CALM      30.17R FOG
WARRENSBURG    CLEAR     61  61 100 CALM      30.16S
WHITEMAN AFB   CLEAR     63  62  97 SW2       30.15R
CLINTON        FOG       63  63 100 CALM      30.17S VSB<1/4
SEDALIA        CLEAR     66  61  84 SW6       30.17R
WARSAW         NOT AVBL
CHILLICOTHE      N/A     66  64  93 CALM      30.17R
KIRKSVILLE     PTCLDY    67  62  84 W6        30.15S

$$

MOZ041-047>049-056>058-063>065-088>090-097-311200-
...EASTERN AND SOUTHERN MISSOURI...

CITY           SKY/WX    TMP DP  RH WIND       PRES   REMARKS
ST. LOUIS INTL PTCLDY    71  64  78 W6        30.13R
SPIRIT OF STL  CLEAR     66  66 100 CALM      30.12R
COLUMBIA       CLEAR     68  63  84 W6        30.15S
JEFFERSON CITY CLOUDY    64  63  96 CALM      30.15R FOG
ROLLA          CLEAR     63  62  97 SW5       30.16R
OSAGE BEACH    CLOUDY    63  61  94 CALM      30.17S VSB<1/4
SPRINGFIELD    PTCLDY    70  64  81 CALM      30.17S
BRANSON        MOCLDY    64  63  94 CALM      30.19R
JOPLIN         MOCLDY    70  65  84 VRB5      30.17R
WEST PLAINS    CLEAR     63  59  87 CALM      30.18R

$$

IAZ060-094-KSZ022-034>040-054-083-096-NEZ052-066-093-311200-
...KANSAS...SOUTHEAST NEBRASKA AND IOWA...

CITY           SKY/WX    TMP DP  RH WIND       PRES   REMARKS
TOPEKA         CLEAR     63  62  97 CALM      30.16S
MANHATTAN      CLEAR     63  62  97 CALM      30.16S
EMPORIA        CLEAR     65  64  97 NW3       30.17S
CHANUTE        MOCLDY    69  67  93 CALM      30.17R
WICHITA        MOCLDY    74  67  78 CALM      30.17R
OMAHA          MOCLDY    71  65  81 S12       30.13F
LINCOLN        CLEAR     69  64  84 NE5       30.18R
FALLS CITY     CLEAR     63  61  93 CALM      30.16R
LAMONI           N/A     72  63  73 SW9       30.14S
DES MOINES     MOCLDY    69  63  81 SW5       30.11R

$$




USA.gov is the U.S. government's official web portal to all federal, state and local government web resources and services.